Regional Weather Roundup
Issued by NWS Bismarck, ND

Home | Current Version | Previous Version | Text Only | Print | Product List | Glossary On
Versions: 1 2 3 4 5 6 7 8 9 10 11 12 13 14 15 16 17 18 19 20 21 22 23 24 25 26 27 28 29 30 31 32 33 34 35 36 37 38 39 40 41 42 43 44 45 46 47 48 49 50
000
ASUS43 KBIS 282102
RWRBIS

NWR BROADCAST TEXT
NATIONAL WEATHER SERVICE BISMARCK ND
400 PM CDT THU JUL 28 2016

NOTE: "FAIR" INDICATES FEW OR NO CLOUDS BELOW 12,000 FEET WITH NO
SIGNIFICANT WEATHER AND/OR OBSTRUCTIONS TO VISIBILITY.


CITY           SKY/WX    TMP DP  RH WIND       PRES   REMARKS
WILLISTON      MOSUNNY   77  51  40 NE6       30.14F
MINOT          PTSUNNY   78  52  40 NE9       30.13F
MINOT AFB      NOT AVBL
BISMARCK       CLOUDY    74  56  53 NE5       30.12F
DICKINSON      CLOUDY    65  58  78 E9        30.14F
GARRISON         N/A     70  55  59 NE6       30.15F
HETTINGER ARPT PTSUNNY   73  59  61 E14       30.14F
JAMESTOWN      CLOUDY    74  62  66 NE8       30.09F
CARRINGTON     MOCLDY    75  61  60 E9        30.14F
HAZEN          CLOUDY    70  55  60 N6        30.16F
OAKES            N/A    N/A N/A N/A MISG        N/A
STANLEY        FAIR      72  54  53 VRB7      30.18F
$$

CITY           SKY/WX    TMP DP  RH WIND       PRES   REMARKS
GRAND FORKS    MOSUNNY   77  57  50 N8        30.10F
GRAND FORKS AF NOT AVBL
DEVILS LAKE    PTSUNNY   71  57  61 CALM      30.15S
FARGO          MOSUNNY   81  61  50 N6        30.07S
CAVALIER       FAIR      73  55  53 NW7G16    30.13S
GRAFTON        FAIR      73  55  53 VRB7      30.14S
LANGDON        FAIR      73  54  49 N6        30.16S
ROLLA            N/A     70  52  52 NE6       30.18S
$$

CITY           SKY/WX    TMP DP  RH WIND       PRES   REMARKS
ABERDEEN       MOSUNNY   76  62  62 E7        30.07S
MOBRIDGE       PTSUNNY   78  54  43 NE5       30.08F
BUFFALO          N/A     65  61  87 E6        30.08R
RAPID CITY     CLOUDY    72  58  61 N6        30.13F
GLASGOW        MOSUNNY   75  55  49 S5        30.14F
SIDNEY         MOSUNNY   78  54  43 CALM      30.13F
WOLF POINT     SUNNY     81  54  39 NE7       30.13F
GLENDIVE       CLOUDY    76  57  51 NE10G16   30.14F
MILES CITY     SUNNY     77  55  46 VRB6      30.13F
BAKER          LGT RAIN  73  58  59 N9        30.14S
$$

CITY           SKY/WX    TMP DP  RH WIND       PRES   REMARKS
BILLINGS       MOSUNNY   79  53  40 E10       30.16F
GREAT FALLS    SUNNY     83  45  26 NE9       30.14F
$$





USA.gov is the U.S. government's official web portal to all federal, state and local government web resources and services.